Zurück zum Katalog

STARLINK-37528

AktivKommunikationSSO
NORAD 68904·PAYLOAD·🇺🇸 United States

Gestartet Apr 30, 2026 von Vandenberg Space Force Base

Loading…

Nächste Überflüge (nächste 24 Stunden)

TLE

AktuellSource: CelesTrak SupGP

Epoche: Sep 15, 2026, 04:18 UTC

1 68904C 26097K   26258.17965278 -.00055054  00000+0 -17086-2 0  2581
2 68904  97.2855  92.4277 0001790  93.3463  79.6758 15.33473621    19

Verfolge STARLINK-37528 in Echtzeit mit AllMySat

Download on the App Store